Regional Weather Roundup
Issued by NWS Sioux Falls, SD

Home | Current Version | Previous Version | Text Only | Print | Product List | Glossary On
Versions: 1 2 3 4 5 6 7 8 9 10 11 12 13 14 15 16 17 18 19 20 21 22 23 24 25 26 27 28 29 30 31 32 33 34 35 36 37 38 39 40 41 42 43 44 45 46 47 48 49 50
000
ASUS43 KFSD 180910
RWRFSD

WEATHER ROUNDUP FOR SE SOUTH DAKOTA/SW MINNESOTA/NW IOWA
NATIONAL WEATHER SERVICE SIOUX FALLS SD
400 AM CDT SAT APR 18 2015

NOTE: "FAIR" INDICATES FEW OR NO CLOUDS BELOW 12,000 FEET WITH NO
SIGNIFICANT WEATHER AND OR OBSTRUCTIONS TO VISIBILITY.


SDZ038>040-050-052>070-181000-
SOUTHEAST SOUTH DAKOTA

CITY           SKY/WX    TMP DP  RH WIND       PRES   REMARKS
BROOKINGS      CLOUDY    43  32  65 CALM      30.05S
CHAMBERLAIN    CLOUDY    56  31  39 NE7       30.00F
HURON          MOCLDY    49  33  54 CALM      30.02F
MADISON        PTSUNNY   46  27  46 NE5       30.04S
MITCHELL       CLOUDY    56  27  32 E7        30.00F
SIOUX FALLS    PTCLDY    50  26  39 NE7       30.01F
WINNER         CLOUDY    53  48  83 N3        30.01F
YANKTON        CLOUDY    55  39  54 E5        29.99S
$$

MNZ071-072-080-081-089-090-097-098-181000-
SOUTHWEST MINNESOTA

CITY           SKY/WX    TMP DP  RH WIND       PRES   REMARKS
FAIRMONT       PTCLDY    54  25  32 N7        30.04S
JACKSON        PTCLDY    50  28  43 NE8       30.05S
LUVERNE        MOCLDY    54  27  35 NE5       30.03F
MARSHALL       PTCLDY    43  18  36 W5        30.05R
MONTEVIDEO     CLEAR     41  21  45 E5        30.06R
PIPESTONE      PTCLDY    55  18  22 E5        30.04S
REDWOOD FALLS  PTCLDY    45  27  49 CALM      30.05R
TRACY          PTCLDY    49  26  40 CALM      30.05S
WORTHINGTON    PTCLDY    48  25  40 NE5       30.05S
$$

IAZ001>003-012>014-020>022-031-032-NEZ013-014-SDZ071-181000-
NORTHWEST IOWA

CITY           SKY/WX    TMP DP  RH WIND       PRES   REMARKS
CHEROKEE       CLOUDY    55  41  58 NE3       30.00F
DENISON        CLOUDY    57  52  82 NW6       29.97S
ESTHERVILLE    PTCLDY    48  33  56 N7        30.03S
LE MARS        CLOUDY    57  37  47 NE9       30.00S
ORANGE CITY    MOCLDY    54  32  43 E8        30.01S
SHELDON        MOCLDY    55  30  38 NE13      30.00F
SIOUX CITY     CLOUDY    61  44  53 E7        29.97F
SPENCER        MOCLDY    53  37  54 E9        30.03S
STORM LAKE     CLOUDY    57  41  54 NE12      30.02S
$$

ABBREVIATIONS USED IN REMARKS
   TC - TEMPERATURE IN CELSIUS
  WCI - WIND CHILL INDEX
   HX - HEAT INDEX
  VSB - VISIBILITY




USA.gov is the U.S. government's official web portal to all federal, state and local government web resources and services.